Waarnemingen

Advertentie
Mijn weer
Marseille/Marignane, Frankrijk (7650): temperatuur & dauwpunt: 15.05.2019 00:00:00 - 21.05.2019 00:00:00 (CEST)Marseille/Marignane, Frankrijk (7650): temperatuur 5cm: 15.05.2019 00:00:00 - 21.05.2019 00:00:00 (CEST)Marseille/Marignane, Frankrijk (7650): temperatuur -20cm & temperatuur -100cm: 15.05.2019 00:00:00 - 21.05.2019 00:00:00 (CEST)Marseille/Marignane, Frankrijk (7650): windsnelheid & windstoten: 15.05.2019 00:00:00 - 21.05.2019 00:00:00 (CEST)Marseille/Marignane, Frankrijk (7650): windrichting: 15.05.2019 00:00:00 - 21.05.2019 00:00:00 (CEST)Marseille/Marignane, Frankrijk (7650): luchtdruk: 15.05.2019 00:00:00 - 21.05.2019 00:00:00 (CEST)Marseille/Marignane, Frankrijk (7650): zicht: 15.05.2019 00:00:00 - 21.05.2019 00:00:00 (CEST)Marseille/Marignane, Frankrijk (7650): Zonneschijnduur: 15.05.2019 00:00:00 - 21.05.2019 00:00:00 (CEST)Marseille/Marignane, Frankrijk (7650): neerslag: 15.05.2019 00:00:00 - 21.05.2019 00:00:00 (CEST)
Datum & Tijd tt [°C] td [°C] tt 5cm [°C] tt -20cm [°C] tt -100cm [°C] ff [km/u] ff [kn] fx [km/u] fx [kn] dd ppp [hPa] vv [km] sd [min] rr [mm]
21.05.2019 00:00:00 16,8 10,6 16,1 18,4 15,7 34 18 44 24 WNW 1011,1 49 0 0,0
20.05.2019 23:00:00 17,4 9,8 16,6 18,6 15,7 30 16 38 21 WNW 1011,0 57 0 0,0
20.05.2019 22:00:00 18,6 9,4 17,6 18,9 15,7 29 16 44 24 NW 1010,3 60 0 0,0
20.05.2019 21:00:00 18,9 10,2 18,3 19,0 15,7 27 14 43 23 NW 1009,6 58 34 0,0
20.05.2019 20:00:00 21,2 8,8 21,2 19,0 15,7 31 17 50 27 NW 1009,1 44 47 0,0
20.05.2019 19:00:00 20,1 12,3 21,3 19,0 15,7 21 11 33 18 W 1008,6 42 8 0,0
20.05.2019 18:00:00 20,8 11,1 23,0 18,8 15,7 27 14 50 27 WNW 1008,5 31 42 0,0
20.05.2019 17:00:00 22,9 9,7 23,3 18,5 15,7 32 18 46 25 NNW 1008,1 35 32 0,0
20.05.2019 16:00:00 21,9 9,1 23,2 18,1 15,6 29 16 47 26 NNW 1008,0 29 23 0,0
20.05.2019 15:00:00 22,7 10,8 25,2 17,7 15,6 29 16 49 26 NNW 1008,3 20 45 0,0
20.05.2019 14:00:00 21,4 10,8 22,3 17,3 15,6 30 16 51 27 NW 1008,5 25 13 0,0
20.05.2019 13:00:00 20,4 10,8 22,2 17,0 15,6 29 15 52 28 NW 1008,2 20 14 0,0
20.05.2019 12:00:00 19,3 12,1 18,9 16,7 15,6 32 17 42 23 WNW 1008,2 34 40 0,0
20.05.2019 11:00:00 16,6 11,3 17,4 16,6 15,6 31 17 39 21 WNW 1008,2 43 3 0,0
20.05.2019 10:00:00 15,9 12,1 15,2 16,6 15,7 29 16 38 20 WNW 1008,0 39 0 0,0
20.05.2019 09:00:00 14,8 11,4 14,7 16,6 15,7 31 17 38 20 WNW 1007,7 20 24 0,0
20.05.2019 08:00:00 14,3 11,8 12,8 16,7 15,6 27 14 39 21 WNW 1007,3 34 1 0,0
20.05.2019 07:00:00 13,8 11,5 12,6 16,8 15,6 29 16 38 20 WNW 1006,9 29 0 0,0
20.05.2019 06:00:00 13,6 11,3 12,5 17,0 15,6 27 15 36 19 WNW 1006,4 40 0 0,0
20.05.2019 05:00:00 13,5 11,2 12,7 17,1 15,6 29 15 35 19 WNW 1006,4 35 0 0,0
20.05.2019 04:00:00 13,3 11,4 12,6 17,2 15,6 25 14 32 17 WNW 1006,5 45 0 0,0
20.05.2019 03:00:00 13,5 11,9 12,8 17,3 15,6 19 11 31 17 NW 1006,7 46 0 0,0
20.05.2019 02:00:00 13,5 11,9 12,8 17,5 15,6 27 15 35 19 WNW 1007,0 45 0 0,2
20.05.2019 01:00:00 13,5 12,1 12,6 17,7 15,6 29 16 39 21 W 1007,1 10 0 0,8
20.05.2019 00:00:00 13,4 12,0 12,7 17,8 15,6 32 17 39 21 W 1007,2 7 0 0,4
19.05.2019 23:00:00 13,5 12,2 12,7 18,0 15,6 29 16 37 20 WNW 1007,3 12 0 1,0
19.05.2019 22:00:00 13,5 12,1 12,5 18,2 15,6 27 15 36 19 W 1007,2 6 0 1,2
19.05.2019 21:00:00 13,5 11,5 12,5 18,4 15,6 24 13 37 20 W 1006,9 11 0 0,4
19.05.2019 20:00:00 13,7 11,4 12,6 18,6 15,6 29 16 44 24 W 1006,6 16 0 0,4
19.05.2019 19:00:00 13,9 11,2 12,8 18,7 15,6 32 18 42 23 W 1006,2 35 0 0,2
19.05.2019 18:00:00 14,1 11,3 13,1 18,7 15,6 31 17 40 21 W 1006,3 14 0 0,0
19.05.2019 17:00:00 14,9 10,9 15,0 18,6 15,6 28 15 39 21 WNW 1006,2 39 0 0,0
19.05.2019 16:00:00 16,8 10,6 19,5 18,4 15,6 32 17 47 26 WNW 1006,1 36 4 0,0
19.05.2019 15:00:00 16,8 9,2 17,5 18,2 15,6 29 15 45 25 NW 1006,1 45 0 0,0
19.05.2019 14:00:00 17,1 9,3 20,1 17,9 15,6 29 16 49 26 NW 1006,0 38 0 0,0
19.05.2019 13:00:00 17,0 9,4 19,5 17,7 15,6 31 17 42 23 NW 1005,9 44 7 0,0
19.05.2019 12:00:00 16,0 10,1 16,8 17,5 15,6 21 11 38 20 NNW 1006,1 49 2 0,0
19.05.2019 11:00:00 15,5 9,4 16,6 17,5 15,6 23 12 35 19 NW 1005,9 48 1 0,0
19.05.2019 10:00:00 14,8 10,2 15,6 17,5 15,6 23 12 29 16 WNW 1005,9 38 0 0,0
19.05.2019 09:00:00 14,0 9,6 14,4 17,5 15,6 21 11 28 15 WNW 1005,9 49 0 0,0
19.05.2019 08:00:00 13,6 10,6 13,0 17,7 15,6 20 11 26 14 W 1005,7 45 0 0,0
19.05.2019 07:00:00 12,9 11,3 12,0 17,9 15,6 15 8 20 11 NW 1005,7 32 0 0,0
19.05.2019 06:00:00 12,3 11,0 11,8 18,1 15,6 13 7 18 10 NW 1005,6 24 0 0,0
19.05.2019 05:00:00 12,8 11,2 9,5 18,3 15,6 12 6 17 9 NW 1005,6 31 0 0,0
19.05.2019 04:00:00 11,5 9,4 8,0 18,7 15,6 2 1 8 4 WZW 1006,0 33 0 0,0
19.05.2019 03:00:00 12,6 10,0 7,7 18,9 15,6 5 3 7 4 ZZW 1006,2 42 0 0,0
19.05.2019 02:00:00 13,3 9,9 9,4 19,2 15,6 3 1 5 3 ZZO 1006,6 58 0 0,0
19.05.2019 01:00:00 14,1 9,9 12,2 19,5 15,6 2 1 15 8 ZZO 1006,8 60 0 0,0
19.05.2019 00:00:00 14,9 10,7 13,7 19,7 15,6 10 5 16 9 N 1006,9 60 0 0,0
18.05.2019 23:00:00 15,2 11,2 14,8 20,0 15,6 12 6 22 12 NNW 1007,3 60 0 0,0
18.05.2019 22:00:00 15,5 10,9 14,6 20,2 15,5 16 8 24 13 ZW 1007,4 49 0 0,0
18.05.2019 21:00:00 15,5 10,0 15,3 20,5 15,5 14 8 36 20 NNO 1007,0 60 0 0,0
18.05.2019 20:00:00 16,7 9,9 16,9 20,6 15,5 31 17 39 21 WZW 1006,1 48 0 0,0
18.05.2019 19:00:00 18,2 10,3 19,8 20,6 15,5 23 13 33 18 ZW 1005,6 46 51 0,0
18.05.2019 18:00:00 19,2 9,1 22,0 20,4 15,5 22 12 35 19 WZW 1005,6 45 57 0,0
18.05.2019 17:00:00 18,9 9,9 22,7 19,9 15,5 27 15 41 22 WZW 1005,3 33 56 0,0
18.05.2019 16:00:00 19,9 10,9 22,0 19,2 15,5 29 16 40 22 WZW 1005,1 41 40 0,0
18.05.2019 15:00:00 20,4 9,0 28,5 18,4 15,5 11 6 17 9 WZW 1005,2 46 60 0,0
18.05.2019 14:00:00 19,5 6,9 25,6 17,5 15,5 11 6 16 9 W 1005,3 50 58 0,0
18.05.2019 13:00:00 18,0 9,3 24,5 16,9 15,5 9 5 16 9 WZW 1005,9 20 55 0,0
18.05.2019 12:00:00 17,1 9,5 19,5 16,6 15,5 10 5 19 10 W 1006,2 42 37 0,0
18.05.2019 11:00:00 15,1 9,9 16,9 16,4 15,5 9 5 14 7 WNW 1006,2 51 0 0,0
18.05.2019 10:00:00 14,3 10,3 16,7 16,3 15,5 8 5 14 8 W 1006,1 20 0 0,0
18.05.2019 09:00:00 14,1 10,5 14,7 16,3 15,5 5 3 8 5 W 1005,8 15 0 0,0
18.05.2019 08:00:00 13,2 10,2 12,5 16,3 15,5 4 2 17 9 ZZO 1005,6 15 0 0,0
18.05.2019 07:00:00 12,7 9,9 11,4 16,4 15,5 5 3 11 6 NO 1005,4 15 0 0,0
18.05.2019 06:00:00 12,3 9,8 11,3 16,5 15,5 6 4 11 6 NW 1005,3 22 0 0,0
18.05.2019 05:00:00 12,4 9,9 11,9 16,7 15,5 9 5 18 10 NW 1005,6 26 0 0,0
18.05.2019 04:00:00 12,6 10,0 12,1 16,8 15,5 13 7 18 10 NW 1005,7 28 0 0,0
18.05.2019 03:00:00 13,3 10,7 12,6 16,9 15,5 11 6 18 10 NW 1006,1 14 0 0,0
18.05.2019 02:00:00 13,3 10,1 12,3 17,0 15,5 10 6 18 10 NW 1006,4 21 0 0,0
18.05.2019 01:00:00 13,3 9,7 11,8 17,1 15,5 7 4 11 6 NW 1006,7 28 0 0,0
18.05.2019 00:00:00 13,4 10,0 11,9 17,2 15,5 8 4 13 7 N 1006,8 27 0 0,0
17.05.2019 23:00:00 14,0 10,0 12,4 17,4 15,5 6 3 11 6 NNW 1006,7 26 0 0,0
17.05.2019 22:00:00 13,8 7,8 12,4 17,5 15,5 3 1 11 6 NO 1006,6 49 0 0,0
17.05.2019 21:00:00 14,2 8,2 13,2 17,6 15,5 8 5 26 14 OZO 1006,0 60 0 0,0
17.05.2019 20:00:00 15,3 8,3 13,5 17,7 15,5 12 7 19 10 NO 1005,6 60 0 0,2
17.05.2019 19:00:00 15,5 8,0 12,7 17,7 15,5 11 6 29 16 ONO 1005,4 18 0 0,4
17.05.2019 18:00:00 16,5 7,2 15,3 17,7 15,4 10 6 44 24 ZO 1005,2 28 0 0,0
17.05.2019 17:00:00 17,0 6,5 17,0 17,7 15,5 21 11 40 22 O 1005,2 34 0 0,0
17.05.2019 16:00:00 17,4 6,6 18,0 17,6 15,4 31 17 49 27 OZO 1005,7 39 0 0,0
17.05.2019 15:00:00 18,3 6,5 18,8 17,6 15,5 24 13 44 24 O 1005,4 47 0 0,0
17.05.2019 14:00:00 17,3 7,9 13,4 17,6 15,4 18 10 32 17 O 1005,7 35 0 0,0
17.05.2019 13:00:00 16,8 8,2 16,8 17,5 15,4 19 10 41 22 OZO 1006,3 41 0 0,0
17.05.2019 12:00:00 16,6 7,5 16,5 17,5 15,4 25 13 40 21 ZO 1006,3 37 0 0,0
17.05.2019 11:00:00 17,0 7,3 18,4 17,5 15,4 19 10 29 15 ZO 1006,1 19 0 0,0
17.05.2019 10:00:00 16,0 7,2 16,9 17,5 15,4 11 6 22 12 ZO 1006,1 42 0 0,0
17.05.2019 09:00:00 15,2 6,2 14,1 17,7 15,4 6 3 21 12 ZO 1006,2 49 2 0,0
17.05.2019 08:00:00 13,5 8,3 10,9 17,8 15,4 14 7 24 13 O 1006,2 46 0 0,0
17.05.2019 07:00:00 13,2 7,0 12,5 18,0 15,4 18 10 32 18 ONO 1005,7 20 0 0,0
17.05.2019 06:00:00 13,0 6,3 12,2 18,3 15,4 13 7 23 12 OZO 1006,8 17 0 0,0
17.05.2019 05:00:00 13,0 6,1 11,5 18,5 15,4 11 6 16 9 O 1007,3 59 0 0,0
17.05.2019 04:00:00 12,5 7,0 9,4 18,8 15,4 12 7 16 8 O 1008,2 59 0 0,0
17.05.2019 03:00:00 11,7 5,8 10,1 19,1 15,4 11 6 15 8 OZO 1008,8 58 0 0,0
17.05.2019 02:00:00 12,6 6,8 10,4 19,5 15,4 10 5 18 10 O 1009,4 57 0 0,0
17.05.2019 01:00:00 13,1 8,6 9,2 19,9 15,4 10 6 14 8 O 1009,6 56 0 0,0
17.05.2019 00:00:00 12,9 8,6 10,1 20,2 15,4 10 5 18 10 ZO 1009,9 54 0 0,0
16.05.2019 23:00:00 13,8 8,6 12,4 20,6 15,4 10 5 22 12 OZO 1010,1 59 0 0,0
16.05.2019 22:00:00 14,4 10,4 13,5 20,9 15,4 11 6 23 12 ZO 1010,2 52 0 0,0
16.05.2019 21:00:00 15,2 10,6 14,8 21,2 15,4 16 9 34 18 Z 1010,0 46 21 0,0
16.05.2019 20:00:00 16,2 7,7 16,5 21,4 15,4 17 9 27 15 Z 1009,9 29 0 0,0
16.05.2019 19:00:00 17,1 4,7 18,1 21,4 15,4 21 11 33 18 Z 1010,1 41 28 0,0
16.05.2019 18:00:00 19,0 5,1 23,1 21,2 15,4 23 13 38 20 Z 1010,1 29 60 0,0
16.05.2019 17:00:00 20,7 4,3 25,6 20,8 15,4 21 11 44 24 ZZW 1010,0 30 60 0,0
16.05.2019 16:00:00 21,3 4,8 27,1 20,1 15,3 21 12 28 15 WZW 1010,2 32 60 0,0
16.05.2019 15:00:00 20,7 5,1 28,6 19,2 15,3 6 3 17 9 W 1010,6 32 60 0,0
16.05.2019 14:00:00 20,4 6,7 27,8 18,3 15,3 10 6 17 9 W 1011,3 26 60 0,0
16.05.2019 13:00:00 19,4 6,8 26,0 17,6 15,3 10 5 18 10 W 1011,9 23 60 0,0
16.05.2019 12:00:00 17,3 6,5 24,4 17,0 15,3 9 5 14 7 W 1012,2 23 60 0,0
16.05.2019 11:00:00 15,7 8,4 21,5 16,5 15,3 8 4 14 8 W 1012,5 13 60 0,0
16.05.2019 10:00:00 14,4 9,2 18,2 16,4 15,3 8 4 16 9 W 1012,6 19 60 0,0
16.05.2019 09:00:00 13,3 9,4 16,0 16,4 15,3 9 5 14 7 W 1012,7 19 60 0,0
16.05.2019 08:00:00 12,3 8,6 9,9 16,6 15,3 2 1 14 8 ZO 1012,6 9 60 0,0
16.05.2019 07:00:00 9,9 7,7 5,6 16,9 15,3 6 3 15 8 O 1012,5 19 23 0,0
16.05.2019 06:00:00 8,8 6,6 4,2 17,2 15,3 6 4 11 6 O 1012,6 20 0 0,0
16.05.2019 05:00:00 9,0 6,8 5,4 17,4 15,3 9 5 11 6 ZO 1012,8 35 0 0,0
16.05.2019 04:00:00 8,5 6,6 5,7 17,7 15,3 8 4 11 6 ZZO 1013,2 32 0 0,0
16.05.2019 03:00:00 10,0 7,6 6,2 18,1 15,3 5 3 9 5 W 1013,3 36 0 0,0
16.05.2019 02:00:00 10,7 7,9 6,6 18,3 15,3 4 2 16 9 Z 1013,9 36 0 0,0
16.05.2019 01:00:00 10,5 8,6 6,8 18,7 15,3 3 2 13 7 O 1014,2 36 0 0,0
16.05.2019 00:00:00 11,0 8,4 8,5 19,0 15,3 10 6 21 11 ZO 1014,5 41 0 0,0
15.05.2019 23:00:00 12,2 7,9 10,6 19,2 15,3 12 6 36 19 OZO 1014,8 50 0 0,0
15.05.2019 22:00:00 13,7 9,1 12,3 19,5 15,3 27 14 37 20 WZW 1014,4 11 0 0,0
15.05.2019 21:00:00 13,5 7,5 12,5 19,7 15,3 16 9 33 18 ZW 1014,1 17 33 0,0
15.05.2019 20:00:00 15,0 7,0 16,7 19,8 15,2 19 11 32 17 ZZW 1013,9 34 60 0,0
15.05.2019 19:00:00 16,3 6,7 20,6 19,7 15,2 19 11 29 16 ZZW 1013,1 31 60 0,0
15.05.2019 18:00:00 17,4 6,3 22,8 19,3 15,2 22 12 30 16 ZZW 1012,5 20 60 0,0
15.05.2019 17:00:00 17,4 6,3 24,6 18,8 15,2 16 8 30 16 ZZW 1012,7 20 60 0,0
15.05.2019 16:00:00 17,4 6,0 23,8 18,3 15,2 12 7 23 12 ZW 1013,1 20 60 0,0
15.05.2019 15:00:00 16,9 5,8 21,3 17,8 15,2 14 8 23 13 W 1013,8 36 42 0,0
15.05.2019 14:00:00 16,0 4,4 20,1 17,5 15,2 15 8 21 11 W 1014,2 41 7 0,0
15.05.2019 13:00:00 15,3 6,3 16,0 17,4 15,2 8 5 17 9 WNW 1014,3 37 0 0,0
15.05.2019 12:00:00 14,1 6,4 16,3 17,4 15,2 8 5 17 9 NO 1014,4 47 0 0,0
15.05.2019 11:00:00 13,7 6,1 15,1 17,4 15,2 6 4 26 14 WZW 1014,2 49 0 0,0
15.05.2019 10:00:00 13,4 3,7 13,5 17,5 15,2 8 4 14 8 ZO 1013,9 50 0 0,0
15.05.2019 09:00:00 12,8 3,2 12,8 17,7 15,2 7 4 23 12 NNO 1013,4 59 0 0,0
15.05.2019 08:00:00 12,4 2,5 11,5 17,9 15,2 6 3 17 9 WNW 1012,8 59 0 0,0
15.05.2019 07:00:00 11,8 3,3 10,0 18,2 15,2 10 5 18 10 NNW 1012,3 60 0 0,0
15.05.2019 06:00:00 12,1 4,3 10,6 18,5 15,2 16 8 21 12 N 1011,8 60 0 0,0
15.05.2019 05:00:00 12,9 8,0 6,0 18,8 15,2 9 5 12 6 NNW 1011,9 54 0 0,0
15.05.2019 04:00:00 11,8 7,1 7,7 19,1 15,2 2 1 11 6 Z 1012,3 49 0 0,0
15.05.2019 03:00:00 13,5 6,8 10,6 19,5 15,2 9 5 18 10 O 1012,7 56 0 0,0
15.05.2019 02:00:00 14,1 8,3 10,9 19,8 15,2 12 7 19 10 OZO 1013,0 49 0 0,0
15.05.2019 01:00:00 14,0 4,0 10,5 20,2 15,2 16 9 21 11 OZO 1013,3 60 0 0,0
15.05.2019 00:00:00 17,0 4,6 13,2 20,6 15,2 12 7 30 16 NNW 1012,8 60 0 0,0

tt = temperatuur
td = dauwpunt
tt 5cm = temperatuur 5cm
tt -20cm = temperatuur -20cm
tt -100cm = temperatuur -100cm
ff = windsnelheid
fx = windstoten
dd = windrichting
ppp = luchtdruk
vv = zicht
sd = Zonneschijnduur
rr = neerslag

Weerstations in de omgeving